[Date Prev][Date Next][Thread Prev][Thread Next] - [Date Index][Thread Index][Author Index]

2 Line ISS Keps 12-19



ISS
1 25544U 98067A   01353.17302326  .00079207  00000-0  95432-3 0  8626
2 25544  51.6391 237.8912 0003109  49.6734  88.0629 15.60090088175941


----
Via the sarex mailing list at AMSAT.ORG courtesy of AMSAT-NA.
To unsubscribe, send "unsubscribe sarex" to Majordomo@amsat.org



AMSAT Top AMSAT Home